Location: Bern�tre
(50.1974°N, 2.0915°E)
Time: 08:38:49
(UTC+00:00)

NOSS 2-2 (C) - Pass Details

Date: 18 September 2020
Orbit: 468 x 1740 km, 63.3° (Epoch: 19 October)

Event Time Altitude Azimuth Distance (km) Brightness Sun altitude
Rises 20:04:45 0° 231° (SW) 2,499 7.0 -20.2°
Reaches altitude 10° 20:06:47 10° 235° (SW) 1,639 6.0 -20.5°
Maximum altitude 20:10:17 63° 317° (NW) 574 3.6 -21.0°
Drops below altitude 10° 20:14:23 10° 40° (NE) 1,912 6.0 -21.6°
Enters shadow 20:15:46 - 42° (NE) 2,494 6.6 -21.8°
